Regional Weather Roundup
Issued by NWS

Home | Current Version | Previous Version | Graphics & Text | Print | Product List | Glossary Off
Versions: 1 2 3 4 5 6 7 8 9 10 11 12 13 14 15 16 17 18 19 20 21 22 23 24 25 26 27 28 29 30 31 32 33 34 35 36 37 38 39 40 41 42 43 44 45 46 47 48 49 50

000
ASUS43 KDMX 221806
RWRIA

WEATHER ROUNDUP FOR IOWA
NATIONAL WEATHER SERVICE DES MOINES IA
100 PM CDT FRI JUN 22 2018

NOTE: "FAIR" INDICATES FEW OR NO CLOUDS BELOW 12,000 FEET WITH NO
SIGNIFICANT WEATHER AND/OR OBSTRUCTIONS TO VISIBILITY.

* - THESE STATIONS ARE NOT NWS STATIONS...THUS NOT UNDER NWS
QUALITY CONTROL.  THEY ALSO DO NOT REPORT WEATHER SUCH
AS PRECIPITATION OR FOG.

IAZ001>003-012>014-020>022-031>034-043>046-221900-
   NORTHWEST IOWA

CITY           SKY/WX    TMP DP  RH WIND       PRES   REMARKS
CARROLL *      CLOUDY    72  61  68 NE10      29.88F
CHEROKEE *     PTSUNNY   73  62  70 NE7       29.90F
DENISON *      CLOUDY    72  61  68 NE9       29.90F
LE MARS *      MOSUNNY   72  61  68 VRB5      29.91F
ORANGE CITY *  CLOUDY    72  61  68 N3        29.92S
SHELDON *      CLOUDY    70  63  78 W6        29.90S
SIOUX CITY     PTSUNNY   71  61  70 CALM      29.91F
6HR MIN TEMP:  61; 6HR MAX TEMP:  73;

STORM LAKE *     N/A     72  61  68 VRB6G12   29.90F
$$

IAZ055>058-069>071-079>083-090>094-221900-
   SOUTHWEST IOWA

CITY           SKY/WX    TMP DP  RH WIND       PRES   REMARKS
ATLANTIC *     CLOUDY    68  63  83 NE8G14    29.88F
AUDUBON *      CLOUDY    70  63  78 N7        29.90F
CLARINDA *     CLOUDY    66  61  82 NE8       29.90S
COUNCIL BLFS * CLOUDY    64 N/A N/A NE8       29.90R
CRESTON *      CLOUDY    68  61  77 N5        29.88S
HARLAN  *        N/A    N/A N/A N/A MISG        N/A
LAMONI         CLOUDY    67  62  84 NW8       29.85F
6HR MIN TEMP:  60; 6HR MAX TEMP:  67;

RED OAK *      CLOUDY    68  64  88 VRB6      29.88F
SHENANDOAH *   CLOUDY    66  63  88 NE9       29.89F
$$

IAZ047>049-059>061-072>074-084-221900-
   CENTRAL IOWA

CITY           SKY/WX    TMP DP  RH WIND       PRES   REMARKS
AMES           CLOUDY    72  58  61 NE10      29.86S
6HR MIN TEMP:  63; 6HR MAX TEMP:  74;

BOONE *        CLOUDY    72  57  60 NE12      29.86S
CHARITON *     CLOUDY    70  61  73 N10       29.83F
GRINNELL*      CLOUDY    70  60  70 NE12      29.85S
KNOXVILLE *    CLOUDY    70  59  68 N10       29.82S
MARSHALLTOWN   CLOUDY    72  62  71 NE15      29.84F
6HR MIN TEMP:  62; 6HR MAX TEMP:  72;

NEWTON *       PTSUNNY   72  59  64 NE9G16    29.84S
PELLA *        CLOUDY    70  61  72 N3        29.84S
PERRY *        CLOUDY    72  60  66 NE8       29.87S
$$

IAZ004>006-015-016-023>025-035-036-221900-
   NORTH CENTRAL IOWA

CITY           SKY/WX    TMP DP  RH WIND       PRES   REMARKS
ALGONA *       CLOUDY    73  61  64 NE8       29.89
CLARION *      CLOUDY    73  61  64 NE8       29.88S
ESTHERVILLE    CLOUDY    71  60  68 NW7       29.89F
6HR MIN TEMP:  59; 6HR MAX TEMP:  72;

FORT DODGE *   CLOUDY    73  61  65 NE8       29.89F
MASON CITY     PTSUNNY   76  65  68 NE8       29.88F
6HR MIN TEMP:  59; 6HR MAX TEMP:  76;

FOREST CITY *  FAIR      72  63  73 NE7       29.88F
WEBSTER CITY * CLOUDY    72  57  60 NE13G18   29.85F
IOWA FALLS *   FAIR      71  60  69 N7        29.88S
$$

IAZ007>011-017>019-026>030-037>042-050>054-066-221900-
   NORTHEAST IOWA

CITY           SKY/WX    TMP DP  RH WIND       PRES   REMARKS
CEDAR RAPIDS   CLOUDY    68  61  78 N10       29.81F
6HR MIN TEMP:  62; 6HR MAX TEMP:  68; 6HR PCP: TRACE;

CHARLES CITY * CLOUDY    73  61  64 NE14      29.87S
CLINTON *      LGT RAIN  66  61  84 NE10      29.80S
DECORAH *      PTSUNNY   73  61  64 NE8       29.86S
DUBUQUE        PTSUNNY   71  59  65 NE15      29.81F
6HR MIN TEMP:  62; 6HR MAX TEMP:  72;

MONTICELLO *   PTSUNNY   72  63  73 N9        29.81S
OELWEIN *      PTSUNNY   70  61  73 NE13      29.85F
WATERLOO       CLOUDY    72  61  68 NE10      29.83F
6HR MIN TEMP:  60; 6HR MAX TEMP:  72;

$$

IAZ064-065-067-068-078-221900-
   EAST CENTRAL IOWA

CITY           SKY/WX    TMP DP  RH WIND       PRES   REMARKS
DAVENPORT      CLOUDY    66  60  81 NE9       29.80F
6HR MIN TEMP:  61; 6HR MAX TEMP:  66; 6HR PCP:  0.03;

IOWA CITY      CLOUDY    69  62  78 NE13      29.81F
6HR MIN TEMP:  63; 6HR MAX TEMP:  69; 6HR PCP:  0.01;

MT. PLEASANT * CLOUDY    63  61  94 N7        29.79S
MUSCATINE *    CLOUDY    66  61  82 NE12      29.79S
QUAD CITIES    CLOUDY    67  61  81 NE12      29.77S
6HR MIN TEMP:  63; 6HR MAX TEMP:  67; 6HR PCP:  0.02;

$$

IAZ062-063-075>077-085>089-095>099-221900-
   SOUTHEAST IOWA

CITY           SKY/WX    TMP DP  RH WIND       PRES   REMARKS
BURLINGTON     CLOUDY    66  62  87 N10       29.77S
6HR MIN TEMP:  64; 6HR MAX TEMP:  66;

FAIRFIELD *    CLOUDY    64  61  88 N10G16    29.80F
FORT MADISON * CLOUDY    66  64  94 N6        29.78F
KEOKUK *       PTSUNNY   64  64 100 N7        29.77F FOG
OSKALOOSA *    CLOUDY    69  59  70 NE15G21   29.82S
CENTERVILLE *    N/A     68  66  94 CALM      29.84F
OTTUMWA        CLOUDY    68  61  78 N13       29.81F
6HR MIN TEMP:  63; 6HR MAX TEMP:  69;

WASHINGTON *   CLOUDY    64  64 100 N9        29.81S
$$

ABBREVIATIONS USED IN REMARKS
   TC - TEMPERATURES IN CELSIUS
  WCI - WIND CHILL INDEX
   HX - HEAT INDEX
  VSB - VISIBILITY
$$





USA.gov is the U.S. government's official web portal to all federal, state and local government web resources and services.